Regional Weather Roundup
Issued by NWS Little Rock, AR

Home | Current Version | Previous Version | Graphics & Text | Print | Product List | Glossary On
Versions: 1 2 3 4 5 6 7 8 9 10 11 12 13 14 15 16 17 18 19 20 21 22 23 24 25 26 27 28 29 30 31 32 33 34 35 36 37 38 39 40 41 42 43 44 45 46 47 48 49 50
000
ASUS44 KLZK 261705
RWRLZK

WEATHER ROUNDUP FOR ARKANSAS
NATIONAL WEATHER SERVICE LITTLE ROCK AR
1100 AM CST MON JAN 26 2015

NOTE: "FAIR" INDICATES FEW OR NO CLOUDS BELOW 12,000 FEET WITH NO
SIGNIFICANT WEATHER AND/OR OBSTRUCTIONS TO VISIBILITY.

ARZ001-003-010-029-261800-
NORTHWEST ARKANSAS

CITY           SKY/WX    TMP DP  RH WIND       PRES   REMARKS
FAYETTEVILLE   SUNNY     46  31  55 S8        30.09F
FORT SMITH     SUNNY     46  32  58 SW9       30.15F
HARRISON       SUNNY     45  31  58 W8        30.07F
BENTONVILLE    SUNNY     45  30  57 W9        30.09F
ROGERS         SUNNY     44  31  60 SW9       30.08F
SILOAM SPGS    SUNNY     46  28  49 SW10      30.10F
HIGHFILL       SUNNY     45  31  58 S8        30.08F
SPRINGDALE     SUNNY     45  30  57 SW5       30.10F
$$

ARZ004-005-016-261800-
NORTH CENTRAL ARKANSAS

CITY           SKY/WX    TMP DP  RH WIND       PRES   REMARKS
BATESVILLE     SUNNY     45  28  53 W8        30.13R
FLIPPIN        SUNNY     45  28  53 SW8       30.09F
MTN HOME       SUNNY     43  30  60 NW7       30.09S
$$

ARZ040-041-261800-
WEST CENTRAL ARKANSAS

CITY           SKY/WX    TMP DP  RH WIND       PRES   REMARKS
MENA           SUNNY     52  34  50 SW3       30.15S
MOUNT IDA      SUNNY     48  31  51 CALM      30.12F
$$

ARZ009-017-025-026-028-261800-
NORTHEAST ARKANSAS

CITY           SKY/WX    TMP DP  RH WIND       PRES   REMARKS
JONESBORO      PTSUNNY   38  31  76 W7        30.13R
NEWPORT        FAIR      43  31  63 NW12      30.16R
WALNUT RIDGE   CLOUDY    39  27  60 NW8       30.13S
BLYTHEVILLE    CLOUDY    41  31  67 NW10      30.12S
NW BLYTHEVILLE PTSUNNY   41  32  70 W5        30.13R
$$

ARZ022-023-033-042-044-261800-
CENTRAL ARKANSAS

CITY           SKY/WX    TMP DP  RH WIND       PRES   REMARKS
LITTLE ROCK    SUNNY     49  31  49 NW8       30.15F
N LITTLE ROCK  SUNNY     46  35  66 NW8G15    30.15F
JACKSONVILLE   SUNNY     47  32  56 W10       30.14F
SEARCY         SUNNY     47  32  56 W10       30.14F
HOT SPRINGS    SUNNY     48  32  53 VRB6      30.16R
RUSSELLVILLE   SUNNY     46  32  58 W9        30.14F
CLINTON        FAIR      46  30  53 CALM      30.13F
$$

ARZ036-261800-
EAST ARKANSAS

CITY           SKY/WX    TMP DP  RH WIND       PRES   REMARKS
WEST MEMPHIS   CLOUDY    39  32  76 NW5       30.14R
$$

ARZ050-053-066-070-073-261800-
SOUTHWEST ARKANSAS

CITY           SKY/WX    TMP DP  RH WIND       PRES   REMARKS
ARKADELPHIA    FAIR      49  34  56 VRB5      30.18F
CAMDEN         SUNNY     54  32  43 MISG      30.19S
TEXARKANA      SUNNY     50  33  52 NW5       30.19F
EL DORADO      SUNNY     49  33  54 W8        30.19S
DE QUEEN       SUNNY     50  35  56 W7        30.16F
$$

ARZ056-057-069-261800-
SOUTHEAST ARKANSAS

CITY           SKY/WX    TMP DP  RH WIND       PRES   REMARKS
PINE BLUFF     SUNNY     46  31  55 NW9       30.17S
STUTTGART      SUNNY     46  32  57 W13       30.16F
MONTICELLO     SUNNY     47  32  56 NW7       30.17R

$$




USA.gov is the U.S. government's official web portal to all federal, state and local government web resources and services.